Location: Unspecified
(12.6500°N, 0.0000°E)
Time: 05:48:11
(UTC+00:00)

Hubble Space Telescope - Visible Passes

Search period start: 20 October 2019 00:00
Search period end: 30 October 2019 00:00
Orbit: 536 x 540 km, 28.5° (Epoch: 19 October)

Date Brightness Start Highest point End Pass type
(mag) Time Alt. Az. Time Alt. Az. Time Alt. Az.
23 Oct 3.4 04:02:49 12° S 04:04:16 14° SSE 04:06:25 10° ESE visible
24 Oct 3.0 03:53:41 19° SSE 03:53:41 19° SSE 03:56:39 10° ESE visible
25 Oct 3.1 03:44:29 22° ESE 03:44:29 22° ESE 03:46:34 10° E visible
25 Oct 1.0 05:20:10 10° WSW 05:24:11 53° NNW 05:28:13 10° NE visible
26 Oct 3.5 03:35:10 17° E 03:35:10 17° E 03:36:18 10° E visible
26 Oct 1.4 05:10:33 15° W 05:13:40 39° NNW 05:17:31 10° NE visible
27 Oct 4.0 03:25:47 11° ENE 03:25:47 11° ENE 03:25:55 10° ENE visible
27 Oct 1.8 05:01:09 20° WNW 05:03:09 30° NNW 05:06:47 10° NE visible
28 Oct 2.1 04:51:39 22° NW 04:52:39 24° NNW 04:56:01 10° NE visible
29 Oct 2.4 04:42:03 19° NNW 04:42:10 19° NNW 04:45:12 10° NNE visible
